RFF9986 UUMU-OSLK

Flight info

Callsign RFF9986
Flight time N/A
Altitude 35000
Route K0850F350 DCT TOGMO M56 ABAGI B105 NIMTA B105 WGD G481 ELI A964 STW ADNET N166 TUDEK R114 TBN W88 EZS W701 GAZ B36 TUSYR B544 ALE W6 BAN DCT
Aircraft T154/M-VGD/A

Departure

Time N/A
Airport Chkalovskiy Air Base (UUMU)

Arrival

Time 2026-04-21 02:03
Airport Latakia International Airport (OSLK)
Time Latitude Longitude Altitude Speed Heading
2026-04-21 00:38 43.94957 39.77227 34024 ft 456 kts 187°
2026-04-21 00:39 43.91820 39.76726 34026 ft 457 kts 187°
2026-04-21 00:39 43.86059 39.75815 34025 ft 457 kts 186°
2026-04-21 00:40 43.79353 39.74757 34025 ft 457 kts 187°
2026-04-21 00:40 43.71986 39.73593 34028 ft 457 kts 187°
2026-04-21 00:41 43.66748 39.72767 34028 ft 457 kts 187°
2026-04-21 00:41 43.60436 39.71773 34027 ft 458 kts 187°
2026-04-21 00:42 43.54113 39.70766 34029 ft 458 kts 188°
2026-04-21 00:42 43.47858 39.69306 34027 ft 458 kts 190°
2026-04-21 00:43 43.41597 39.67823 34029 ft 458 kts 189°
2026-04-21 00:43 43.35334 39.66390 34021 ft 458 kts 189°
2026-04-21 00:44 43.29046 39.64965 34024 ft 458 kts 189°
2026-04-21 00:44 43.22734 39.63539 34022 ft 458 kts 189°
2026-04-21 00:45 43.13345 39.61423 34025 ft 458 kts 189°
2026-04-21 00:45 43.07047 39.60007 34026 ft 458 kts 189°
2026-04-21 00:46 43.00765 39.58597 34027 ft 459 kts 189°
2026-04-21 00:46 42.94459 39.57185 34024 ft 459 kts 189°
2026-04-21 00:47 42.88224 39.55792 33999 ft 459 kts 189°
2026-04-21 00:47 42.81931 39.54395 34025 ft 459 kts 189°
2026-04-21 00:48 42.75666 39.53003 34025 ft 459 kts 189°
2026-04-21 00:48 42.69474 39.51627 34029 ft 459 kts 189°
2026-04-21 00:49 42.63177 39.50231 34030 ft 459 kts 189°
2026-04-21 00:49 42.56889 39.48834 34027 ft 459 kts 189°
2026-04-21 00:50 42.50606 39.47439 34031 ft 459 kts 189°
2026-04-21 00:50 42.44286 39.46039 34032 ft 459 kts 189°
2026-04-21 00:51 42.38028 39.44656 34029 ft 459 kts 189°
2026-04-21 00:51 42.31704 39.43261 34023 ft 460 kts 189°
2026-04-21 00:52 42.25425 39.41879 34024 ft 460 kts 189°
2026-04-21 00:52 42.19092 39.40516 34028 ft 459 kts 186°
2026-04-21 00:53 42.15932 39.40508 34070 ft 457 kts 173°
2026-04-21 00:53 42.12819 39.41454 34067 ft 457 kts 163°
2026-04-21 00:53 42.06760 39.44043 34070 ft 457 kts 164°
2026-04-21 00:54 42.00639 39.46271 34066 ft 458 kts 166°
2026-04-21 00:54 41.94455 39.48364 34060 ft 459 kts 166°
2026-04-21 00:55 41.88251 39.50434 34030 ft 460 kts 166°
2026-04-21 00:55 41.82085 39.52475 34050 ft 460 kts 166°
2026-04-21 00:56 41.75901 39.54516 34053 ft 460 kts 166°
2026-04-21 00:56 41.69677 39.56567 34053 ft 460 kts 166°
2026-04-21 00:57 41.63447 39.58619 34059 ft 460 kts 166°
2026-04-21 00:57 41.57290 39.60665 34060 ft 460 kts 166°
2026-04-21 00:58 41.51056 39.62735 34060 ft 460 kts 166°
2026-04-21 00:58 41.44875 39.64778 34057 ft 461 kts 166°
2026-04-21 00:59 41.38674 39.66813 34056 ft 461 kts 166°
2026-04-21 00:59 41.32464 39.68849 34053 ft 461 kts 166°
2026-04-21 01:00 41.26242 39.70886 34057 ft 461 kts 166°
2026-04-21 01:00 41.20156 39.72875 34057 ft 461 kts 166°
2026-04-21 01:01 41.13918 39.74908 34056 ft 461 kts 166°
2026-04-21 01:01 41.07709 39.76929 34055 ft 461 kts 166°
2026-04-21 01:02 41.01495 39.78947 34061 ft 461 kts 166°
2026-04-21 01:02 40.95198 39.79529 34066 ft 459 kts 189°
2026-04-21 01:03 40.89068 39.77698 34041 ft 460 kts 192°
2026-04-21 01:03 40.82717 39.76087 34052 ft 460 kts 190°
2026-04-21 01:04 40.76419 39.74721 34051 ft 461 kts 189°
2026-04-21 01:04 40.70118 39.73397 34054 ft 461 kts 189°
2026-04-21 01:05 40.63786 39.72072 34059 ft 461 kts 189°
2026-04-21 01:05 40.57478 39.70755 34058 ft 461 kts 189°
2026-04-21 01:06 40.51182 39.69443 34060 ft 461 kts 189°
2026-04-21 01:06 40.44835 39.68200 34059 ft 462 kts 188°
2026-04-21 01:07 40.38487 39.66996 34033 ft 462 kts 189°
2026-04-21 01:07 40.32159 39.65653 34028 ft 462 kts 189°
2026-04-21 01:08 40.25813 39.64317 34029 ft 462 kts 189°
2026-04-21 01:08 40.19491 39.62998 34028 ft 462 kts 189°
2026-04-21 01:09 40.13135 39.61676 33966 ft 464 kts 189°
2026-04-21 01:09 40.06771 39.60351 33971 ft 463 kts 189°
2026-04-21 01:10 40.00436 39.59004 33973 ft 463 kts 189°
2026-04-21 01:10 39.94084 39.57657 33969 ft 463 kts 189°
2026-04-21 01:11 39.87772 39.56366 33940 ft 464 kts 189°
2026-04-21 01:11 39.81501 39.55100 33961 ft 463 kts 189°
2026-04-21 01:12 39.75169 39.53817 33961 ft 463 kts 189°
2026-04-21 01:12 39.68808 39.52499 33968 ft 463 kts 192°
2026-04-21 01:13 39.62580 39.50489 33962 ft 463 kts 195°
2026-04-21 01:13 39.56336 39.48457 33971 ft 463 kts 194°
2026-04-21 01:14 39.50248 39.46553 33973 ft 463 kts 194°
2026-04-21 01:14 39.43976 39.44635 33966 ft 464 kts 193°
2026-04-21 01:15 39.37738 39.42737 33965 ft 464 kts 193°
2026-04-21 01:15 39.31464 39.40828 33966 ft 464 kts 193°
2026-04-21 01:16 39.25191 39.38923 33964 ft 464 kts 193°
2026-04-21 01:16 39.18944 39.37029 33968 ft 464 kts 193°
2026-04-21 01:17 39.12663 39.35128 33969 ft 464 kts 193°
2026-04-21 01:17 39.06449 39.33219 33970 ft 464 kts 193°
2026-04-21 01:18 39.00168 39.31302 33970 ft 464 kts 193°
2026-04-21 01:18 38.93885 39.29399 33941 ft 465 kts 193°
2026-04-21 01:19 38.87621 39.27493 33912 ft 465 kts 193°
2026-04-21 01:19 38.81367 39.25599 33930 ft 465 kts 193°
2026-04-21 01:20 38.75093 39.23698 33937 ft 465 kts 193°
2026-04-21 01:20 38.68995 39.21268 33942 ft 463 kts 208°
2026-04-21 01:21 38.66304 39.18959 33942 ft 462 kts 220°
2026-04-21 01:21 38.63967 39.16188 33949 ft 462 kts 223°
2026-04-21 01:21 38.59173 39.10684 33942 ft 463 kts 220°
2026-04-21 01:22 38.54212 39.05499 33941 ft 464 kts 219°
2026-04-21 01:22 38.49168 39.00386 33943 ft 464 kts 218°
2026-04-21 01:23 38.44132 38.95253 33940 ft 465 kts 219°
2026-04-21 01:23 38.39117 38.90120 33935 ft 465 kts 219°
2026-04-21 01:24 38.34097 38.84997 33935 ft 465 kts 219°
2026-04-21 01:24 38.29035 38.79842 33937 ft 465 kts 219°
2026-04-21 01:25 38.24003 38.74741 33942 ft 465 kts 218°
2026-04-21 01:25 38.18926 38.69622 33935 ft 465 kts 218°
2026-04-21 01:26 38.13869 38.64530 33935 ft 465 kts 218°
2026-04-21 01:26 38.08826 38.59459 33940 ft 465 kts 218°
2026-04-21 01:27 38.03754 38.54369 33965 ft 465 kts 218°
2026-04-21 01:27 37.98804 38.49409 33965 ft 465 kts 218°
2026-04-21 01:28 37.93749 38.44354 33968 ft 465 kts 218°
2026-04-21 01:28 37.88729 38.39344 33950 ft 466 kts 218°
2026-04-21 01:29 37.83611 38.34274 33957 ft 466 kts 218°
2026-04-21 01:29 37.78547 38.29218 33949 ft 466 kts 218°
2026-04-21 01:30 37.73440 38.24136 33876 ft 467 kts 218°
2026-04-21 01:30 37.68349 38.19088 33882 ft 467 kts 218°
2026-04-21 01:31 37.63249 38.14043 33973 ft 465 kts 218°
2026-04-21 01:31 37.58164 38.09020 33941 ft 466 kts 218°
2026-04-21 01:32 37.53052 38.03981 33908 ft 467 kts 218°
2026-04-21 01:32 37.47955 37.98960 33907 ft 467 kts 218°
2026-04-21 01:33 37.42870 37.93927 33906 ft 467 kts 218°
2026-04-21 01:33 37.37780 37.88897 33908 ft 467 kts 218°
2026-04-21 01:34 37.32659 37.83850 33908 ft 467 kts 218°
2026-04-21 01:34 37.27570 37.78841 33910 ft 467 kts 218°
2026-04-21 01:35 37.22505 37.73867 33908 ft 467 kts 218°
2026-04-21 01:35 37.17410 37.68872 33906 ft 467 kts 218°
2026-04-21 01:36 37.12299 37.63872 33906 ft 467 kts 218°
2026-04-21 01:36 37.07186 37.58920 33908 ft 467 kts 218°
2026-04-21 01:37 37.02050 37.53957 33905 ft 467 kts 218°
2026-04-21 01:37 36.96892 37.48976 33908 ft 467 kts 218°
2026-04-21 01:38 36.94224 37.46754 33912 ft 466 kts 207°
2026-04-21 01:38 36.91237 37.45298 33915 ft 465 kts 194°
2026-04-21 01:38 36.84864 37.43964 33922 ft 465 kts 189°
2026-04-21 01:39 36.78549 37.42421 33917 ft 466 kts 193°
2026-04-21 01:39 36.72258 37.40640 33907 ft 466 kts 193°
2026-04-21 01:40 36.65970 37.38741 33914 ft 467 kts 195°
2026-04-21 01:40 36.59750 37.36501 33913 ft 467 kts 198°
2026-04-21 01:41 36.54747 37.34506 33906 ft 467 kts 197°
2026-04-21 01:42 36.46205 37.31173 33912 ft 467 kts 197°
2026-04-21 01:42 36.40035 37.28816 33913 ft 467 kts 197°
2026-04-21 01:43 36.33801 37.26565 33908 ft 468 kts 195°
2026-04-21 01:43 36.27564 37.24352 33904 ft 468 kts 196°
2026-04-21 01:44 36.21322 37.22127 33902 ft 468 kts 196°
2026-04-21 01:44 36.15456 37.18848 33927 ft 465 kts 217°
2026-04-21 01:45 36.13114 37.16153 33949 ft 464 kts 230°
2026-04-21 01:45 36.11169 37.12981 33948 ft 465 kts 234°
2026-04-21 01:45 36.07168 37.06714 33943 ft 466 kts 229°
2026-04-21 01:46 36.02867 37.00774 33941 ft 466 kts 227°
2026-04-21 01:46 35.98441 36.94913 33941 ft 467 kts 227°
2026-04-21 01:47 35.94005 36.89079 33940 ft 468 kts 227°
2026-04-21 01:47 35.89565 36.83247 33935 ft 468 kts 227°
2026-04-21 01:48 35.85109 36.77440 33935 ft 468 kts 226°
2026-04-21 01:48 35.80663 36.71635 33933 ft 460 kts 227°
2026-04-21 01:49 35.78468 36.68766 33511 ft 454 kts 227°
2026-04-21 01:49 35.76330 36.65973 32989 ft 449 kts 227°
2026-04-21 01:49 35.74218 36.63216 32467 ft 445 kts 227°
2026-04-21 01:49 35.72101 36.60454 31943 ft 441 kts 227°
2026-04-21 01:50 35.69993 36.57706 31293 ft 442 kts 227°
2026-04-21 01:50 35.67898 36.54977 30487 ft 445 kts 227°
2026-04-21 01:50 35.65801 36.52248 29728 ft 446 kts 227°
2026-04-21 01:50 35.63669 36.49469 28985 ft 446 kts 227°
2026-04-21 01:51 35.61551 36.46691 28269 ft 445 kts 227°
2026-04-21 01:51 35.59453 36.43950 27574 ft 443 kts 227°
2026-04-21 01:51 35.57344 36.41208 26881 ft 441 kts 227°
2026-04-21 01:51 35.55255 36.38493 26198 ft 439 kts 227°
2026-04-21 01:52 35.53143 36.35750 25519 ft 436 kts 227°
2026-04-21 01:52 35.49032 36.30406 24045 ft 433 kts 226°
2026-04-21 01:52 35.46992 36.27694 23308 ft 431 kts 227°
2026-04-21 01:53 35.45151 36.24918 22523 ft 414 kts 237°
2026-04-21 01:53 35.43924 36.21806 21697 ft 398 kts 251°
2026-04-21 01:53 35.43300 36.18581 20976 ft 381 kts 263°
2026-04-21 01:53 35.43002 36.15472 20371 ft 366 kts 263°
2026-04-21 01:54 35.42715 36.12517 19738 ft 354 kts 263°
2026-04-21 01:54 35.42427 36.09541 19072 ft 344 kts 263°
2026-04-21 01:54 35.42151 36.06708 18409 ft 336 kts 263°
2026-04-21 01:54 35.41876 36.03884 17728 ft 329 kts 263°
2026-04-21 01:55 35.41611 36.01149 17051 ft 322 kts 263°
2026-04-21 01:55 35.41347 35.98456 16415 ft 314 kts 263°
2026-04-21 01:55 35.41100 35.95920 16562 ft 281 kts 263°
2026-04-21 01:55 35.40865 35.93673 16567 ft 254 kts 262°
2026-04-21 01:56 35.40656 35.91626 16251 ft 237 kts 264°
2026-04-21 01:56 35.40518 35.89707 15907 ft 214 kts 265°
2026-04-21 01:56 35.40398 35.87889 14991 ft 223 kts 265°
2026-04-21 01:56 35.40274 35.85998 13878 ft 233 kts 265°
2026-04-21 01:57 35.39855 35.84115 12997 ft 226 kts 242°
2026-04-21 01:57 35.38865 35.82721 12266 ft 217 kts 216°
2026-04-21 01:57 35.37503 35.82039 11463 ft 214 kts 188°
2026-04-21 01:57 35.36045 35.82077 10578 ft 216 kts 174°
2026-04-21 01:58 35.34573 35.82262 9642 ft 218 kts 174°
2026-04-21 01:58 35.33087 35.82455 8728 ft 218 kts 174°
2026-04-21 01:58 35.31590 35.82664 7825 ft 215 kts 170°
2026-04-21 01:58 35.30280 35.83390 6996 ft 210 kts 142°
2026-04-21 01:59 35.29414 35.84751 6166 ft 206 kts 114°
2026-04-21 01:59 35.29177 35.86443 5329 ft 203 kts 88°
2026-04-21 01:59 35.29278 35.88126 4476 ft 204 kts 85°
2026-04-21 01:59 35.29398 35.89835 3611 ft 203 kts 85°
2026-04-21 02:00 35.29510 35.91535 2764 ft 200 kts 86°
2026-04-21 02:00 35.29661 35.93129 2430 ft 176 kts 82°
2026-04-21 02:00 35.29785 35.94532 2134 ft 162 kts 85°
2026-04-21 02:00 35.30162 35.95765 2039 ft 156 kts 34°
2026-04-21 02:01 35.31272 35.95888 1893 ft 173 kts 349°
2026-04-21 02:01 35.32449 35.95647 1806 ft 167 kts 354°
2026-04-21 02:01 35.33571 35.95509 1782 ft 158 kts 355°
2026-04-21 02:01 35.34656 35.95423 1656 ft 158 kts 359°
2026-04-21 02:02 35.35797 35.95347 1385 ft 168 kts
2026-04-21 02:02 35.36952 35.95386 928 ft 169 kts
2026-04-21 02:02 35.38094 35.95205 432 ft 172 kts 350°
2026-04-21 02:02 35.39243 35.95105 193 ft 158 kts 356°
2026-04-21 02:03 35.40257 35.95030 177 ft 133 kts 358°
2026-04-21 02:03 35.40895 35.94990 176 ft 49 kts 356°
2026-04-21 02:03 35.41106 35.94973 176 ft 25 kts 356°
2026-04-21 02:03 35.41238 35.94963 176 ft 7 kts 356°
2026-04-21 02:04 35.41273 35.94961 176 ft 4 kts 356°
2026-04-21 02:04 35.41305 35.94958 176 ft 4 kts 356°
2026-04-21 02:04 35.41334 35.94953 176 ft 4 kts 345°
2026-04-21 02:04 35.41357 35.94938 176 ft 3 kts 319°
2026-04-21 02:05 35.41372 35.94888 176 ft 9 kts 271°
2026-04-21 02:05 35.41371 35.94814 176 ft 8 kts 269°
2026-04-21 02:05 35.41345 35.94746 176 ft 11 kts 203°
2026-04-21 02:05 35.41265 35.94744 176 ft 11 kts 175°
2026-04-21 02:06 35.41184 35.94752 176 ft 11 kts 175°
2026-04-21 02:06 35.41106 35.94759 176 ft 11 kts 175°
2026-04-21 02:06 35.41031 35.94767 176 ft 10 kts 175°
2026-04-21 02:06 35.40961 35.94774 176 ft 4 kts 174°
2026-04-21 02:07 35.40957 35.94775 176 ft 0 kts 174°
2026-04-21 02:07 35.40955 35.94775 176 ft 0 kts 174°
2026-04-21 02:07 35.40943 35.94776 176 ft 5 kts 178°
2026-04-21 02:07 35.40890 35.94778 176 ft 9 kts 178°
2026-04-21 02:08 35.40818 35.94780 176 ft 11 kts 179°
2026-04-21 02:08 35.40749 35.94765 176 ft 12 kts 232°
2026-04-21 02:08 35.40738 35.94727 176 ft 13 kts 262°
2026-04-21 02:08 35.40729 35.94611 176 ft 11 kts 253°
2026-04-21 02:09 35.40696 35.94550 176 ft 7 kts 232°
2026-04-21 02:09 35.40649 35.94532 176 ft 6 kts 175°
2026-04-21 02:09 35.40609 35.94522 176 ft 5 kts 231°
2026-04-21 02:09 35.40616 35.94490 176 ft 4 kts 330°
2026-04-21 02:10 35.40638 35.94484 176 ft 0 kts 355°